Location: Twentynine Palms Airport
(34.1316°N, 115.9458°W)
Time: 00:47:51
(UTC-08:00)

Amateur Radio Satellites - All Passes

Search period start: 13 February 2016 00:17
Search period end: 14 February 2016 00:17
Location: Twentynine Palms Airport, 34.1316°N, 115.9458°W

Satellite Date Start Highest point End Downlink Frequencies (MHz)
Time Altitude Azimuth
DANDE 13 Feb 00:23:01 00:29:38 31° 86° (E) 00:36:45 436.750
ITUPSAT 1 13 Feb 00:24:15 00:28:17 28° 70° (ENE) 00:32:20 437.325
BEESAT 13 Feb 00:30:09 00:34:22 33° 71° (ENE) 00:38:38 436.000
BEESAT 3 13 Feb 00:30:33 00:34:01 28° 55° (NE) 00:37:26 437.485
BUGSAT 1 13 Feb 00:41:45 00:44:01 15° 292° (WNW) 00:46:17 437.445
Oscar 19 13 Feb 00:51:03 00:56:02 51° 100° (E) 01:00:59 437.125/150
YUBILEINY 13 Feb 00:59:35 01:04:58 18° 80° (E) 01:10:19 435.215
BEESAT 2 13 Feb 01:00:55 01:04:41 39° 57° (ENE) 01:08:24 435.950
CUSAT 1 13 Feb 01:01:15 01:09:14 85° 278° (W) 01:17:17 437.405
JAS-2 13 Feb 01:03:37 01:08:47 44° 99° (E) 01:13:42 435.910
KKS-1 13 Feb 01:15:44 01:17:25 12° 65° (ENE) 01:19:05 437.445
SWISSCUBE 13 Feb 01:22:27 01:27:07 58° 259° (W) 01:31:51 437.505
AIST 2 13 Feb 01:47:19 01:49:20 13° 49° (NE) 01:51:21 435.215
Gurwin Techsat 1B 13 Feb 01:50:11 01:55:31 71° 102° (ESE) 02:00:49 435.225
PHONESAT 2.4 13 Feb 01:52:35 01:55:25 26° 5° (N) 01:58:15 2401.200-2431.200
ITUPSAT 1 13 Feb 02:02:10 02:06:02 25° 264° (W) 02:09:57 437.325
DANDE 13 Feb 02:04:33 02:12:07 53° 283° (WNW) 02:20:24 436.750
AO-7 13 Feb 02:07:06 02:12:12 17° 93° (E) 02:17:15 29.400- 29.500
ITAMSAT 1 13 Feb 02:07:36 02:12:43 52° 101° (E) 02:17:47 435.822/435.867
BEESAT 13 Feb 02:08:39 02:12:11 21° 265° (W) 02:15:44 436.000
BEESAT 3 13 Feb 02:08:48 02:11:32 18° 250° (WSW) 02:14:15 437.485
Cosmos 2491 13 Feb 02:09:01 02:17:44 74° 267° (W) 02:26:28 435.465 / 435.565
SO-50 13 Feb 02:15:14 02:18:00 15° 107° (ESE) 02:20:47 436.795
STARS 13 Feb 02:22:49 02:26:51 36° 72° (ENE) 02:30:52 437.465
Oscar 19 13 Feb 02:31:48 02:34:54 16° 295° (WNW) 02:37:58 437.125/150
BEESAT 2 13 Feb 02:40:17 02:42:11 13° 252° (WSW) 02:44:05 435.950
CUSAT 1 13 Feb 02:47:48 02:52:25 16° 293° (WNW) 02:57:01 437.405
KKS-1 13 Feb 02:49:06 02:53:28 54° 259° (W) 02:57:51 437.445
JAS-2 13 Feb 02:49:55 02:53:27 18° 296° (WNW) 02:56:51 435.910
YUBILEINY 13 Feb 02:51:51 03:00:38 78° 277° (W) 03:09:30 435.215
MOZHAYETS 4 13 Feb 03:08:32 03:13:05 86° 77° (ENE) 03:17:41
M-CUBED/EXP-1 PRIME 13 Feb 03:12:15 03:14:10 14° 101° (E) 03:16:08 437.505
AUBIESAT-1 13 Feb 03:18:48 03:20:43 14° 101° (E) 03:22:41 437.475
AIST 2 13 Feb 03:24:07 03:28:08 52° 245° (WSW) 03:32:06 435.215
PHONESAT 2.4 13 Feb 03:29:46 03:33:01 61° 21° (NNE) 03:36:15 2401.200-2431.200
Gurwin Techsat 1B 13 Feb 03:32:36 03:34:48 13° 297° (WNW) 03:37:00 435.225
ITAMSAT 1 13 Feb 03:48:28 03:51:42 17° 295° (WNW) 03:54:56 435.822/435.867
SO-50 13 Feb 03:53:14 03:58:00 53° 302° (WNW) 04:02:51 436.795
AO-7 13 Feb 03:57:19 04:05:39 81° 289° (WNW) 04:13:56 29.400- 29.500
CUBESAT XI-V 13 Feb 03:59:52 04:03:50 28° 71° (ENE) 04:07:50 437.345
STARS 13 Feb 04:00:36 04:03:18 16° 266° (W) 04:06:00 437.465
Cosmos 2504 13 Feb 04:02:50 04:11:18 69° 92° (E) 04:20:07 435.465 / 435.565
HORYU 2 13 Feb 04:10:58 04:15:26 82° 101° (E) 04:19:55 437.375
Cosmos 2491 13 Feb 04:12:18 04:12:56 10° 284° (WNW) 04:13:35 435.465 / 435.565
M-CUBED/EXP-1 PRIME 13 Feb 04:45:43 04:48:47 28° 291° (WNW) 04:52:01 437.505
AUBIESAT-1 13 Feb 04:52:09 04:55:16 30° 291° (WNW) 04:58:35 437.475
YUBILEINY 13 Feb 04:55:31 04:58:52 12° 296° (WNW) 05:02:14 435.215
PHONESAT 2.4 13 Feb 05:07:29 05:10:05 22° 215° (SW) 05:12:39 2401.200-2431.200
BRITE-PL 13 Feb 05:20:08 05:21:43 12° 90° (E) 05:23:16 437.365/2234.400
LilacSat-2 13 Feb 05:23:23 05:26:26 23° 96° (E) 05:29:28 437.200
CUBESAT XI-V 13 Feb 05:37:23 05:41:08 24° 265° (W) 05:44:56 437.345
CUTE-I 13 Feb 05:51:28 05:56:49 62° 101° (ESE) 06:02:07 437.470
AO-7 13 Feb 05:52:47 05:57:08 15° 307° (NW) 06:01:28 29.400- 29.500
Cosmos 2504 13 Feb 05:58:51 06:05:21 23° 290° (WNW) 06:12:02 435.465 / 435.565
GOMX 1 13 Feb 06:05:27 06:08:24 18° 94° (E) 06:11:16 467.674
Cubesat XI-IV 13 Feb 06:06:22 06:11:46 86° 103° (ESE) 06:17:10 437.490
STRAND 1 13 Feb 06:09:01 06:14:07 83° 75° (ENE) 06:19:16 437.568
O/OREOS (USA 219) 13 Feb 06:25:47 06:30:07 54° 106° (ESE) 06:34:32 437.305
GONETS M04 13 Feb 06:27:22 06:31:02 13° 78° (ENE) 06:34:42
JUGNU 13 Feb 06:29:33 06:33:18 17° 171° (S) 06:37:02 437.505
BRITE-PL 13 Feb 06:56:13 07:00:34 45° 287° (WNW) 07:04:38 437.365/2234.400
LilacSat-2 13 Feb 06:57:56 07:00:35 18° 289° (WNW) 07:03:14 437.200
DOVE 4 13 Feb 07:04:30 07:08:30 44° 99° (E) 07:12:27 437.250
PRISM 13 Feb 07:07:25 07:11:33 73° 257° (WSW) 07:15:45 437.425
CANX-2 13 Feb 07:27:29 07:31:28 36° 98° (E) 07:35:26 2200.000
CINEMA 3 13 Feb 07:31:09 07:34:44 27° 97° (E) 07:38:22 145.822/145.860
CUTE-I 13 Feb 07:33:23 07:36:16 15° 296° (WNW) 07:39:11 437.470
GOMX 1 13 Feb 07:42:53 07:46:31 27° 289° (WNW) 07:50:03 467.674
Cubesat XI-IV 13 Feb 07:50:08 07:51:03 10° 299° (WNW) 07:51:58 437.490
HO-68 13 Feb 07:55:06 08:02:17 67° 103° (ESE) 08:09:24 435.675
COMPASS 1 13 Feb 07:55:51 07:59:46 36° 98° (E) 08:03:40 437.405
PCSat 13 Feb 08:07:46 08:10:39 15° 104° (ESE) 08:13:33 145.827
O/OREOS (USA 219) 13 Feb 08:08:00 08:09:52 12° 302° (WNW) 08:11:45 437.305
SRMSAT 13 Feb 08:13:09 08:16:34 16° 170° (S) 08:20:00 437.500
SEEDS 13 Feb 08:16:43 08:20:59 85° 282° (WNW) 08:25:15 437.485
CUTE 1.7 + AOD 2 13 Feb 08:17:14 08:21:28 61° 285° (WNW) 08:25:42 437.475
JUGNU 13 Feb 08:17:28 08:21:38 20° 182° (S) 08:25:48 437.505
GONETS M04 13 Feb 08:17:47 08:26:27 87° 97° (E) 08:35:13
ANTELSAT 13 Feb 08:19:21 08:21:11 13° 67° (ENE) 08:23:01 437.575/2403.000
AAUSAT CUBESAT 2 13 Feb 08:20:35 08:24:45 60° 101° (E) 08:28:54 437.432
TIGRISAT 13 Feb 08:24:31 08:26:40 14° 67° (ENE) 08:28:50 435.000
Oscar 11 13 Feb 08:24:43 08:28:20 25° 96° (E) 08:31:55 145.826/435.025
RS-15 13 Feb 08:37:03 08:44:21 20° 100° (E) 08:51:48 29.354- 29.394
UWE-3 13 Feb 08:40:57 08:45:03 45° 100° (E) 08:49:13 435.000/436.395/437.385
DOVE 4 13 Feb 08:44:19 08:45:47 12° 294° (WNW) 08:47:15 437.250
CUBEBUG 2 13 Feb 08:48:19 08:52:34 81° 102° (ESE) 08:56:55 437.445
Cosmos 2499 13 Feb 08:52:24 09:01:00 67° 92° (E) 09:09:47 435.465 / 435.565
AO-85 13 Feb 08:54:17 08:59:34 88° 299° (WNW) 09:05:05 145.980
DELFI C3 13 Feb 09:04:08 09:07:55 37° 98° (E) 09:11:41 145.870
CANX-2 13 Feb 09:04:24 09:07:00 16° 292° (WNW) 09:09:35 2200.000
UNISAT 6 13 Feb 09:08:22 09:12:31 48° 74° (ENE) 09:16:38 437.425
CINEMA 3 13 Feb 09:08:47 09:11:42 19° 290° (WNW) 09:14:40 145.822/145.860
HUMSAT D 13 Feb 09:12:19 09:15:17 19° 95° (E) 09:18:16 437.325/437.525
QB50P1 13 Feb 09:18:37 09:20:41 13° 67° (ENE) 09:22:45 145.935-145.965
ZACube-1 13 Feb 09:26:03 09:30:19 74° 284° (WNW) 09:34:40 437.345
COMPASS 1 13 Feb 09:32:32 09:35:00 15° 292° (WNW) 09:37:27 437.405
FUNcube-1 13 Feb 09:33:05 09:37:18 64° 284° (WNW) 09:41:36 145.935
AIST 1 13 Feb 09:37:49 09:42:11 69° 95° (E) 09:46:34
HO-68 13 Feb 09:44:16 09:49:18 21° 299° (WNW) 09:54:20 435.675
PCSat 13 Feb 09:48:08 09:53:28 60° 298° (WNW) 09:58:50 145.827
BUGSAT 1 13 Feb 09:52:32 09:55:02 16° 68° (ENE) 09:57:32 437.445
ANTELSAT 13 Feb 09:53:21 09:57:29 45° 261° (W) 10:01:36 437.575/2403.000
TIGRISAT 13 Feb 09:58:56 10:03:00 41° 261° (W) 10:07:03 435.000
SRMSAT 13 Feb 10:00:53 10:05:03 20° 180° (S) 10:09:13 437.500
Oscar 11 13 Feb 10:00:54 10:04:18 23° 290° (WNW) 10:07:43 145.826/435.025
50 SAT 13 Feb 10:05:37 10:07:45 14° 94° (E) 10:09:54 437.505
JUGNU 13 Feb 10:06:46 10:09:57 15° 192° (SSW) 10:13:08 437.505
AISAT 13 Feb 10:09:26 10:11:57 15° 94° (E) 10:14:26 437.250
POLYITAN 1 13 Feb 10:10:28 10:14:38 58° 75° (ENE) 10:18:46 437.675
QB50P2 13 Feb 10:10:53 10:15:04 61° 75° (ENE) 10:19:14 145.880/145.840
CUBEBUG 1 13 Feb 10:17:40 10:20:07 15° 94° (E) 10:22:31 437.445
DX 1 13 Feb 10:18:56 10:22:06 20° 96° (E) 10:25:15 434.975-435.025
UWE-3 13 Feb 10:19:12 10:21:08 13° 292° (WNW) 10:23:04 435.000/436.395/437.385
GONETS M04 13 Feb 10:19:27 10:24:21 16° 293° (WNW) 10:29:18
AO-85 13 Feb 10:38:14 10:40:53 14° 316° (NW) 10:43:34 145.980
POPSAT HIP 1 13 Feb 10:39:37 10:43:47 61° 260° (W) 10:47:58 437.405
DELFI C3 13 Feb 10:40:27 10:42:28 14° 292° (WNW) 10:44:29 145.870
DUCHIFAT 1 13 Feb 10:41:23 10:45:33 63° 259° (WSW) 10:49:43 145.980
NANOSAT C BR1 13 Feb 10:41:47 10:45:56 59° 259° (W) 10:50:07 145.865
RS-15 13 Feb 10:44:03 10:55:07 84° 298° (WNW) 11:06:50 29.354- 29.394
ESTCUBE 1 13 Feb 10:45:36 10:49:58 46° 99° (E) 10:54:18 437.505/2401.250
HUMSAT D 13 Feb 10:47:16 10:50:54 29° 288° (WNW) 10:54:32 437.325/437.525
Cosmos 2499 13 Feb 10:48:02 10:54:43 24° 290° (WNW) 11:01:32 435.465 / 435.565
UNISAT 6 13 Feb 10:48:18 10:49:28 11° 267° (W) 10:50:36 437.425
QB50P1 13 Feb 10:52:04 10:56:05 42° 261° (W) 11:00:05 145.935-145.965
DANDE 13 Feb 11:11:28 11:14:13 13° 61° (ENE) 11:16:41 436.750
JAS-2 13 Feb 11:12:22 11:17:00 18° 64° (ENE) 11:21:24 435.910
BUGSAT 1 13 Feb 11:26:17 11:30:08 35° 262° (W) 11:33:57 437.445
VELOX 1 13 Feb 11:26:48 11:31:11 66° 285° (WNW) 11:35:31 145.980
TISAT 1 13 Feb 11:33:05 11:34:37 12° 93° (E) 11:36:09 437.305
UKube-1 13 Feb 11:34:51 11:39:06 58° 285° (WNW) 11:43:19 .
SPROUT 13 Feb 11:37:17 11:41:21 43° 99° (E) 11:45:23 437.525
50 SAT 13 Feb 11:38:28 11:41:47 29° 287° (WNW) 11:45:07 437.505
AISAT 13 Feb 11:44:28 11:48:33 38° 288° (WNW) 11:52:36 437.250
CUSAT 1 13 Feb 11:45:10 11:50:02 47° 76° (ENE) 11:53:43 437.405
SRMSAT 13 Feb 11:50:00 11:53:32 16° 190° (S) 11:57:04 437.500
CUBEBUG 1 13 Feb 11:52:29 11:56:31 38° 287° (WNW) 12:00:30 437.445
DX 1 13 Feb 11:54:32 11:58:16 29° 289° (WNW) 12:01:59 434.975-435.025
Oscar 19 13 Feb 12:04:05 12:09:05 51° 73° (ENE) 12:14:05 437.125/150
ESTCUBE 1 13 Feb 12:23:57 12:26:21 14° 294° (WNW) 12:28:44 437.505/2401.250
SO-50 13 Feb 12:28:26 12:33:06 50° 58° (ENE) 12:37:34 436.795
BEESAT 13 Feb 12:36:19 12:37:41 11° 92° (E) 12:39:03 436.000
DANDE 13 Feb 12:52:07 12:58:15 64° 266° (W) 13:02:46 436.750
JAS-2 13 Feb 12:53:41 13:01:23 79° 257° (WSW) 13:08:25 435.910
ISS 13 Feb 12:54:01 12:56:59 33° 132° (SE) 12:59:57 145.825
RS-15 13 Feb 13:00:48 13:09:32 25° 324° (NW) 13:18:39 29.354- 29.394
AO-7 13 Feb 13:02:43 13:08:15 20° 56° (NE) 13:13:45 29.400- 29.500
TISAT 1 13 Feb 13:06:31 13:10:28 43° 286° (WNW) 13:14:24 437.305
YUBILEINY 13 Feb 13:07:03 13:15:26 45° 77° (ENE) 13:23:41 435.215
Gurwin Techsat 1B 13 Feb 13:07:27 13:12:45 78° 75° (ENE) 13:18:05 435.225
Cosmos 2491 13 Feb 13:10:51 13:17:37 26° 84° (E) 13:24:22 435.465 / 435.565
SPROUT 13 Feb 13:14:55 13:16:54 13° 293° (WNW) 13:18:53 437.525
ITAMSAT 1 13 Feb 13:21:49 13:26:50 54° 73° (ENE) 13:31:55 435.822/435.867
SWISSCUBE 13 Feb 13:26:22 13:31:01 48° 100° (E) 13:35:38 437.505
Oscar 19 13 Feb 13:45:36 13:48:37 16° 267° (W) 13:51:39 437.125/150
Cosmos 2504 13 Feb 14:02:31 14:08:11 19° 68° (ENE) 14:13:34 435.465 / 435.565
ITUPSAT 1 13 Feb 14:05:18 14:10:07 72° 285° (WNW) 14:14:54 437.325
SO-50 13 Feb 14:10:33 14:13:04 14° 253° (WSW) 14:15:32 436.795
BEESAT 13 Feb 14:11:04 14:15:48 60° 286° (WNW) 14:20:30 436.000
BEESAT 3 13 Feb 14:20:15 14:21:49 12° 108° (ESE) 14:23:23 437.485
ISS 13 Feb 14:30:59 14:33:28 20° 326° (NNW) 14:35:58 145.825
KKS-1 13 Feb 14:43:53 14:47:59 37° 99° (E) 14:52:04 437.445
JAS-2 13 Feb 14:45:01 14:46:55 11° 269° (W) 14:48:48 435.910
BEESAT 2 13 Feb 14:50:48 14:53:31 18° 110° (ESE) 14:56:14 435.950
AO-7 13 Feb 14:51:37 15:00:00 83° 253° (WSW) 15:08:25 29.400- 29.500
ITAMSAT 1 13 Feb 15:03:46 15:06:35 15° 267° (W) 15:09:25 435.822/435.867
YUBILEINY 13 Feb 15:04:15 15:11:53 34° 274° (W) 15:19:29 435.215
Cosmos 2491 13 Feb 15:05:18 15:13:48 57° 280° (W) 15:22:20 435.465 / 435.565
HORYU 2 13 Feb 15:05:20 15:09:32 46° 73° (ENE) 15:13:46 437.375
SWISSCUBE 13 Feb 15:05:36 15:08:22 15° 294° (WNW) 15:11:09 437.505
MOZHAYETS 4 13 Feb 15:07:45 15:11:41 27° 96° (E) 15:15:37
RS-15 13 Feb 15:24:44 15:28:37 12° 0° (N) 15:32:34 29.354- 29.394
M-CUBED/EXP-1 PRIME 13 Feb 15:29:31 15:32:59 40° 255° (WSW) 15:36:14 437.505
AUBIESAT-1 13 Feb 15:35:29 15:38:57 42° 256° (WSW) 15:42:13 437.475
Cubesat XI-IV 13 Feb 15:49:37 15:50:39 11° 62° (ENE) 15:51:41 437.490
STARS 13 Feb 15:51:46 15:56:06 65° 284° (WNW) 16:00:25 437.465
Cosmos 2504 13 Feb 15:54:02 16:02:26 73° 267° (W) 16:10:11 435.465 / 435.565
BEESAT 3 13 Feb 15:55:21 15:59:08 43° 302° (WNW) 16:02:58 437.485
KKS-1 13 Feb 16:21:26 16:24:14 17° 293° (WNW) 16:27:01 437.445
BRITE-PL 13 Feb 16:26:12 16:29:08 15° 66° (ENE) 16:32:01 437.365/2234.400
BEESAT 2 13 Feb 16:27:34 16:31:09 31° 304° (NW) 16:34:45 435.950
O/OREOS (USA 219) 13 Feb 16:39:19 16:43:50 56° 68° (ENE) 16:48:21 437.305
HORYU 2 13 Feb 16:44:23 16:46:18 13° 267° (W) 16:48:14 437.375
MOZHAYETS 4 13 Feb 16:44:58 16:48:43 24° 290° (WNW) 16:52:26
AO-7 13 Feb 16:50:18 16:53:42 13° 268° (W) 16:57:06 29.400- 29.500
GOMX 1 13 Feb 17:09:27 17:13:02 19° 68° (ENE) 17:16:30 467.674
CUTE-I 13 Feb 17:09:32 17:14:48 70° 75° (ENE) 17:20:08 437.470
AIST 2 13 Feb 17:17:44 17:21:54 81° 117° (ESE) 17:26:04 435.215
Cubesat XI-IV 13 Feb 17:24:36 17:29:55 84° 256° (WSW) 17:35:18 437.490
AO-85 13 Feb 17:30:45 17:35:16 31° 53° (NE) 17:39:25 145.980
LilacSat-2 13 Feb 17:35:06 17:38:53 64° 259° (W) 17:42:40 437.200
CUBESAT XI-V 13 Feb 17:36:39 17:41:20 71° 283° (WNW) 17:45:57 437.345
RS-15 13 Feb 17:38:28 17:47:51 25° 37° (NE) 17:57:19 29.354- 29.394
BRITE-PL 13 Feb 18:01:20 18:07:00 69° 259° (W) 18:12:32 437.365/2234.400
DOVE 4 13 Feb 18:05:48 18:10:18 34° 73° (ENE) 18:14:36 437.250
CANX-2 13 Feb 18:17:45 18:20:27 17° 68° (ENE) 18:23:08 2200.000
HO-68 13 Feb 18:20:01 18:26:17 34° 66° (ENE) 18:32:35 435.675
O/OREOS (USA 219) 13 Feb 18:21:38 18:22:40 11° 262° (W) 18:23:43 437.305
STRAND 1 13 Feb 18:23:34 18:28:22 38° 98° (E) 18:33:07 437.568
CINEMA 3 13 Feb 18:29:53 18:33:00 18° 70° (ENE) 18:36:02 145.822/145.860
GONETS M04 13 Feb 18:33:07 18:41:05 36° 75° (ENE) 18:49:02
PCSat 13 Feb 18:39:44 18:45:00 49° 60° (ENE) 18:50:13 145.827
COMPASS 1 13 Feb 18:44:17 18:46:47 16° 69° (ENE) 18:49:18 437.405
GOMX 1 13 Feb 18:45:33 18:50:45 47° 261° (W) 18:55:43 467.674
Cosmos 2499 13 Feb 18:51:11 18:56:16 18° 67° (ENE) 19:01:07 435.465 / 435.565
CUTE-I 13 Feb 18:53:37 18:55:17 11° 268° (W) 18:56:58 437.470
PRISM 13 Feb 18:53:44 18:56:49 20° 96° (E) 18:59:52 437.425
SEEDS 13 Feb 19:04:48 19:08:40 38° 74° (ENE) 19:12:35 437.485
CUTE 1.7 + AOD 2 13 Feb 19:05:57 19:10:04 56° 75° (ENE) 19:14:12 437.475
AAUSAT CUBESAT 2 13 Feb 19:07:46 19:11:06 24° 71° (ENE) 19:14:27 437.432
AO-85 13 Feb 19:11:34 19:15:36 26° 251° (WSW) 19:19:20 145.980
Oscar 11 13 Feb 19:17:30 19:19:26 13° 67° (ENE) 19:21:22 145.826/435.025
ISS 13 Feb 19:25:56 19:26:59 11° 27° (NNE) 19:28:01 145.825
UWE-3 13 Feb 19:35:05 19:38:24 23° 71° (ENE) 19:41:41 435.000/436.395/437.385
CUBEBUG 2 13 Feb 19:42:55 19:46:57 40° 74° (ENE) 19:50:54 437.445
DOVE 4 13 Feb 19:44:06 19:47:58 22° 264° (W) 19:51:43 437.250
DELFI C3 13 Feb 19:48:21 19:50:26 14° 68° (ENE) 19:52:31 145.870
RS-15 13 Feb 19:50:12 20:02:30 81° 61° (ENE) 20:14:50 29.354- 29.394
AIST 1 13 Feb 19:51:05 19:52:37 12° 73° (ENE) 19:54:09
CANX-2 13 Feb 19:52:13 19:56:00 32° 262° (W) 19:59:49 2200.000
STRAND 1 13 Feb 20:03:23 20:07:15 22° 293° (WNW) 20:11:06 437.568
CINEMA 3 13 Feb 20:05:44 20:09:54 33° 262° (W) 20:13:55 145.822/145.860
HO-68 13 Feb 20:07:10 20:13:48 40° 261° (W) 20:20:28 435.675
ZACube-1 13 Feb 20:18:13 20:22:16 51° 75° (ENE) 20:26:18 437.345
COMPASS 1 13 Feb 20:18:18 20:22:03 33° 262° (W) 20:25:51 437.405
PCSat 13 Feb 20:24:19 20:27:57 18° 255° (WSW) 20:31:34 145.827
FUNcube-1 13 Feb 20:24:51 20:28:58 59° 76° (ENE) 20:33:03 145.935
PRISM 13 Feb 20:28:37 20:32:05 26° 289° (WNW) 20:35:32 437.425
GONETS M04 13 Feb 20:29:47 20:37:51 42° 272° (W) 20:45:58
Cosmos 2499 13 Feb 20:42:10 20:50:20 76° 267° (W) 20:57:50 435.465 / 435.565
SEEDS 13 Feb 20:42:29 20:44:32 13° 267° (W) 20:46:34 437.485
AAUSAT CUBESAT 2 13 Feb 20:43:21 20:46:31 21° 265° (W) 20:49:42 437.432
Oscar 11 13 Feb 20:51:01 20:55:07 45° 261° (W) 20:59:16 145.826/435.025
ISS 13 Feb 21:00:36 21:03:51 87° 45° (NE) 21:07:04 145.825
UNISAT 6 13 Feb 21:05:05 21:07:21 14° 94° (E) 21:09:40 437.425
UWE-3 13 Feb 21:11:22 21:14:45 23° 264° (W) 21:18:07 435.000/436.395/437.385
DX 1 13 Feb 21:12:41 21:14:11 12° 65° (ENE) 21:15:40 434.975-435.025
DELFI C3 13 Feb 21:21:22 21:25:00 35° 262° (W) 21:28:41 145.870
CUBEBUG 2 13 Feb 21:21:44 21:23:42 13° 266° (W) 21:25:40 437.445
AIST 1 13 Feb 21:26:20 21:30:27 44° 267° (W) 21:34:31
HUMSAT D 13 Feb 21:34:18 21:38:21 68° 259° (W) 21:42:25 437.325/437.525
ESTCUBE 1 13 Feb 21:41:46 21:45:34 27° 71° (ENE) 21:49:24 437.505/2401.250
PHONESAT 2.4 13 Feb 21:42:22 21:45:24 36° 149° (SSE) 21:48:28 2401.200-2431.200
ANTELSAT 13 Feb 21:48:19 21:52:33 45° 100° (E) 21:56:52 437.575/2403.000
TIGRISAT 13 Feb 21:53:35 21:57:51 50° 100° (E) 22:02:12 435.000
POLYITAN 1 13 Feb 22:01:08 22:02:57 12° 93° (E) 22:04:45 437.675
QB50P2 13 Feb 22:01:23 22:03:23 13° 93° (E) 22:05:23 145.880/145.840
RS-15 13 Feb 22:04:42 22:13:38 25° 259° (W) 22:22:38 29.354- 29.394
50 SAT 13 Feb 22:14:19 22:17:59 72° 77° (ENE) 22:21:42 437.505
VELOX 1 13 Feb 22:20:04 22:24:30 67° 75° (ENE) 22:28:56 145.980
UKube-1 13 Feb 22:25:20 22:29:39 71° 75° (ENE) 22:33:59 .
SPROUT 13 Feb 22:27:58 22:31:14 21° 70° (ENE) 22:34:29 437.525
POPSAT HIP 1 13 Feb 22:28:34 22:32:09 27° 97° (E) 22:35:42 437.405
DUCHIFAT 1 13 Feb 22:29:47 22:33:17 25° 97° (E) 22:36:46 145.980
NANOSAT C BR1 13 Feb 22:30:21 22:33:57 27° 97° (E) 22:37:32 145.865
AISAT 13 Feb 22:37:33 22:42:01 72° 258° (WSW) 22:46:29 437.250
UNISAT 6 13 Feb 22:40:03 22:44:12 42° 286° (WNW) 22:48:26 437.425
QB50P1 13 Feb 22:40:28 22:44:24 38° 99° (E) 22:48:19 145.935-145.965
CUBEBUG 1 13 Feb 22:44:01 22:48:27 77° 259° (WSW) 22:52:54 437.445
DX 1 13 Feb 22:45:34 22:49:51 54° 259° (W) 22:54:10 434.975-435.025
CUSAT 1 13 Feb 23:03:00 23:06:23 13° 81° (E) 23:09:46 437.405
BUGSAT 1 13 Feb 23:11:40 23:15:28 40° 99° (E) 23:19:14 437.445
ESTCUBE 1 13 Feb 23:18:45 23:22:18 23° 264° (W) 23:25:54 437.505/2401.250
PHONESAT 2.4 13 Feb 23:19:28 23:22:37 42° 343° (NNW) 23:25:46 2401.200-2431.200
ANTELSAT 13 Feb 23:26:39 23:28:52 14° 293° (WNW) 23:31:07 437.575/2403.000
TIGRISAT 13 Feb 23:32:15 23:34:07 13° 293° (WNW) 23:35:59 435.000
POLYITAN 1 13 Feb 23:34:57 23:38:55 42° 286° (WNW) 23:42:53 437.675
QB50P2 13 Feb 23:35:24 23:39:20 40° 287° (WNW) 23:43:16 145.880/145.840
TISAT 1 13 Feb 23:54:00 23:58:13 81° 77° (ENE) 00:02:27 437.305
SPROUT 14 Feb 00:03:26 00:07:02 26° 263° (W) 00:10:39 437.525
POPSAT HIP 1 14 Feb 00:04:40 00:07:44 20° 291° (WNW) 00:10:48 437.405
DUCHIFAT 1 14 Feb 00:05:43 00:08:49 21° 290° (WNW) 00:11:55 145.980
NANOSAT C BR1 14 Feb 00:06:29 00:09:29 19° 291° (WNW) 00:12:29 145.865
JAS-2 14 Feb 00:11:10 00:13:14 12° 91° (E) 00:15:17 435.910
